Date String (YYYY-MM-DD hh:mm:ss) UTC,Instrument flags,absolute air pressure of the measurement (hPa),sample flow rate (lpm),inlet stack bypass flow (lpm),air temperature of the measurement (°C),ambient temperature measured by the external sensor (°C),aerosol sample conditioner tube jacket temperature (°C),OPC LED temperature (°C),internal box temperature (°C),relative humidity of the measurement (%),span deviation,mass concentration of particles derived from Lorenz-Mie calculation of OPC scattering (μg/m³),mass concentration of particles derived from Lorenz-Mie calculation of OPC scattering (μg/m³),mass concentration of particles derived from Lorenz-Mie calculation of OPC scattering (μg/m³)
DateTimeUTC,F1_M11,P_M11,Q1_M11,Q2_M11,T1_M11,T2_M11,T3_M11,T4_M11,T5_M11,U1_M11,ZSPAN_M11,X2_M11,X0_M11,X1_M11
2024-01-28 15:00:00,SystemResetWarning,0836.4,5.00,000.00,020.1,019.4,000.0,028.3,021.5,12.9,0000.0,0000.68,0001.47,0000.64
2024-01-28 15:01:00,SystemResetWarning,0836.4,5.00,000.00,020.1,019.4,000.0,028.4,021.5,13.0,0000.0,0000.67,0001.45,0000.63
2024-01-28 15:02:00,SystemResetWarning,0836.3,5.00,000.00,020.1,019.4,000.0,028.4,021.5,13.2,0000.0,0000.67,0001.44,0000.63
2024-01-28 15:03:00,SystemResetWarning,0836.4,5.00,000.00,020.1,019.4,000.0,028.4,021.5,13.1,0000.0,0000.67,0001.45,0000.62
2024-01-28 15:04:00,SystemResetWarning,0836.5,5.00,000.00,020.1,019.4,000.0,028.4,021.5,13.1,0000.0,0000.66,0001.44,0000.61
2024-01-28 15:05:00,SystemResetWarning,0836.5,5.00,000.00,020.1,019.4,000.0,028.4,021.5,13.4,0000.0,0000.67,0001.46,0000.61
2024-01-28 15:06:00,SystemResetWarning,0836.5,5.01,000.00,020.1,019.4,000.0,028.4,021.5,13.3,0000.0,0000.67,0001.47,0000.61
2024-01-28 15:07:00,SystemResetWarning,0836.5,5.00,000.00,020.1,019.4,000.0,028.4,021.5,13.7,0000.0,0000.67,0001.47,0000.62
2024-01-28 15:08:00,SystemResetWarning,0836.5,5.00,000.00,020.1,019.4,000.0,028.4,021.6,13.5,0000.0,0000.67,0001.46,0000.62
2024-01-28 15:09:00,SystemResetWarning,0836.5,5.00,000.00,020.2,019.4,000.0,028.4,021.6,14.0,0000.0,0000.67,0000.87,0000.61
2024-01-28 15:10:00,SystemResetWarning,0836.5,5.01,000.00,020.2,019.4,000.0,028.4,021.6,13.6,0000.0,0000.67,0000.82,0000.61
2024-01-28 15:11:00,SystemResetWarning,0836.5,5.00,000.00,020.2,019.4,000.0,028.4,021.6,13.7,0000.0,0000.67,0000.82,0000.62
2024-01-28 15:12:00,SystemResetWarning,0836.4,5.00,000.00,020.2,019.4,000.0,028.4,021.6,13.6,0000.0,0000.69,0000.86,0000.62
2024-01-28 15:13:00,SystemResetWarning,0836.4,5.00,000.00,020.2,019.4,000.0,028.4,021.6,13.0,0000.0,0000.69,0000.90,0000.60
2024-01-28 15:14:00,SystemResetWarning,0836.4,5.00,000.00,020.2,019.4,000.0,028.4,021.6,12.9,0000.0,0000.67,0000.87,0000.60
2024-01-28 15:15:00,SystemResetWarning,0836.4,5.00,000.00,020.2,019.5,000.0,028.5,021.7,12.9,0000.0,0000.67,0000.89,0000.58
2024-01-28 15:16:00,SystemResetWarning,0836.4,5.00,000.00,020.2,019.5,000.0,028.5,021.7,12.8,0000.0,0000.69,0000.93,0000.58
2024-01-28 15:17:00,SystemResetWarning,0836.5,5.00,000.00,020.2,019.5,000.0,028.5,021.7,12.8,0000.0,0000.67,0000.91,0000.58
2024-01-28 15:18:00,SystemResetWarning,0836.5,5.00,000.00,020.2,019.5,000.0,028.5,021.7,12.9,0000.0,0000.66,0000.90,0000.57
2024-01-28 15:19:00,SystemResetWarning,0836.5,5.00,000.00,020.2,019.5,000.0,028.5,021.7,13.0,0000.0,0000.66,0000.89,0000.56
2024-01-28 15:20:00,SystemResetWarning,0836.5,4.99,000.00,020.3,019.5,000.0,028.5,021.7,12.9,0000.0,0000.64,0000.85,0000.55
2024-01-28 15:21:00,SystemResetWarning,0836.5,5.00,000.00,020.3,019.5,000.0,028.5,021.7,12.8,0000.0,0000.62,0000.82,0000.54
2024-01-28 15:22:00,SystemResetWarning,0836.4,5.00,000.00,020.3,019.5,000.0,028.5,021.7,12.7,0000.0,0000.61,0000.80,0000.53
2024-01-28 15:23:00,SystemResetWarning,0836.4,5.00,000.00,020.3,019.5,000.0,028.5,021.7,12.9,0000.0,0000.60,0000.77,0000.53
2024-01-28 15:24:00,SystemResetWarning,0836.4,4.99,000.00,020.3,019.6,000.0,028.5,021.8,13.9,0000.0,0000.60,0000.76,0000.53
2024-01-28 15:25:00,SystemResetWarning,0836.3,5.00,000.00,020.3,019.6,000.0,028.5,021.8,14.2,0000.0,0000.59,0000.74,0000.52
2024-01-28 15:26:00,SystemResetWarning,0836.3,5.00,000.00,020.3,019.6,000.0,028.6,021.8,14.2,0000.0,0000.59,0000.72,0000.52
2024-01-28 15:27:00,SystemResetWarning,0836.2,5.01,000.00,020.3,019.6,000.0,028.6,021.8,13.8,0000.0,0000.56,0000.66,0000.52
2024-01-28 15:28:00,SystemResetWarning,0836.2,5.00,000.00,020.3,019.6,000.0,028.6,021.8,13.7,0000.0,0000.55,0000.64,0000.51
2024-01-28 15:29:00,SystemResetWarning,0836.2,5.02,000.00,020.4,019.6,000.0,028.6,021.8,13.3,0000.0,0000.56,0000.66,0000.51
2024-01-28 15:30:00,SystemResetWarning,0836.1,5.01,000.00,020.4,019.6,000.0,028.6,021.8,14.5,0000.0,0000.58,0000.70,0000.51
2024-01-28 15:31:00,SystemResetWarning,0836.1,4.99,000.00,020.4,019.6,000.0,028.6,021.8,13.9,0000.0,0000.60,0000.73,0000.52
2024-01-28 15:32:00,SystemResetWarning,0836.2,5.00,000.00,020.4,019.7,000.0,028.6,021.8,13.0,0000.0,0000.61,0000.79,0000.52
2024-01-28 15:33:00,SystemResetWarning,0836.2,4.99,000.00,020.4,019.7,000.0,028.6,021.8,13.0,0000.0,0000.62,0000.81,0000.52
2024-01-28 15:34:00,SystemResetWarning,0836.2,5.00,000.00,020.4,019.7,000.0,028.6,021.8,13.3,0000.0,0000.62,0000.81,0000.52
2024-01-28 15:35:00,SystemResetWarning,0836.2,4.99,000.00,020.4,019.7,000.0,028.7,021.9,13.6,0000.0,0000.60,0000.77,0000.52
2024-01-28 15:36:00,SystemResetWarning,0836.2,4.99,000.00,020.4,019.7,000.0,028.7,021.9,13.7,0000.0,0000.60,0000.78,0000.52
2024-01-28 15:37:00,SystemResetWarning,0836.2,5.01,000.00,020.4,019.8,000.0,028.7,021.9,13.8,0000.0,0000.62,0000.81,0000.51
2024-01-28 15:38:00,SystemResetWarning,0836.2,5.01,000.00,020.5,019.8,000.0,028.7,021.9,14.0,0000.0,0000.62,0000.82,0000.52
2024-01-28 15:39:00,SystemResetWarning,0836.3,5.00,000.00,020.5,019.8,000.0,028.7,021.9,14.5,0000.0,0000.62,0000.81,0000.52
2024-01-28 15:40:00,SystemResetWarning,0836.3,5.00,000.00,020.5,019.8,000.0,028.7,022.0,14.7,0000.0,0000.61,0000.80,0000.52
2024-01-28 15:41:00,SystemResetWarning,0836.4,5.00,000.00,020.5,019.9,000.0,028.7,022.0,15.2,0000.0,0000.60,0000.77,0000.52
2024-01-28 15:42:00,SystemResetWarning,0836.4,4.99,000.00,020.5,019.9,000.0,028.7,022.0,15.3,0000.0,0000.58,0000.74,0000.52
2024-01-28 15:43:00,SystemResetWarning,0836.3,5.00,000.00,020.6,019.9,000.0,028.7,022.0,14.7,0000.0,0000.57,0000.70,0000.52
2024-01-28 15:44:00,SystemResetWarning,0836.2,5.00,000.00,020.6,019.9,000.0,028.7,022.0,14.3,0000.0,0000.59,0000.76,0000.51
2024-01-28 15:45:00,SystemResetWarning,0836.3,4.99,000.00,020.6,020.0,000.0,028.8,022.1,14.2,0000.0,0000.60,0000.80,0000.51
2024-01-28 15:46:00,SystemResetWarning,0836.3,5.00,000.00,020.6,020.0,000.0,028.8,022.1,14.5,0000.0,0000.60,0000.80,0000.51
2024-01-28 15:47:00,SystemResetWarning,0836.3,5.00,000.00,020.6,020.0,000.0,028.8,022.1,14.5,0000.0,0000.59,0000.81,0000.50
2024-01-28 15:48:00,SystemResetWarning,0836.3,5.00,000.00,020.6,020.0,000.0,028.8,022.1,15.1,0000.0,0000.59,0000.80,0000.50
2024-01-28 15:49:00,SystemResetWarning,0836.2,5.00,000.00,020.6,020.0,000.0,028.8,022.1,14.6,0000.0,0000.58,0000.78,0000.49
2024-01-28 15:50:00,SystemResetWarning,0836.2,5.00,000.00,020.7,020.1,000.0,028.8,022.2,14.7,0000.0,0000.58,0000.79,0000.49
2024-01-28 15:51:00,SystemResetWarning,0836.3,5.00,000.00,020.7,020.1,000.0,028.9,022.2,14.9,0000.0,0000.57,0000.78,0000.48
2024-01-28 15:52:00,SystemResetWarning,0836.2,5.00,000.00,020.7,020.1,000.0,028.9,022.2,14.6,0000.0,0000.55,0000.75,0000.46
2024-01-28 15:53:00,SystemResetWarning,0836.2,5.00,000.00,020.7,020.1,000.0,028.9,022.2,14.2,0000.0,0000.54,0000.74,0000.46
2024-01-28 15:54:00,SystemResetWarning,0836.3,5.01,000.00,020.7,020.2,000.0,028.9,022.2,14.2,0000.0,0000.54,0000.73,0000.45
2024-01-28 15:55:00,SystemResetWarning,0836.2,5.02,000.00,020.8,020.2,000.0,028.9,022.2,14.2,0000.0,0000.51,0000.65,0000.45
2024-01-28 15:56:00,SystemResetWarning,0836.2,5.00,000.00,020.8,020.2,000.0,028.9,022.3,14.0,0000.0,0000.50,0000.62,0000.45
2024-01-28 15:57:00,SystemResetWarning,0836.3,4.99,000.00,020.8,020.2,000.0,028.9,022.3,14.2,0000.0,0000.50,0000.61,0000.45
2024-01-28 15:58:00,SystemResetWarning,0836.4,5.00,000.00,020.8,020.2,000.0,029.0,022.3,14.5,0000.0,0000.48,0000.59,0000.44
2024-01-28 15:59:00,SystemResetWarning,0836.4,5.00,000.00,020.8,020.3,000.0,029.0,022.3,14.4,0000.0,0000.47,0000.57,0000.42
